TimeEDT,TemperatureF,Dew PointF,Humidity,Sea Level PressureIn,VisibilityMPH,Wind Direction,Wind SpeedMPH,Gust SpeedMPH,PrecipitationIn,Events,Conditions,WindDirDegrees,DateUTC
12:54 AM,55.9,43.0,62,30.11,10.0,NNW,6.9,-,N/A,,Clear,330,2012-03-27 04:54:00
1:54 AM,55.9,43.0,62,30.11,10.0,Calm,Calm,-,N/A,,Clear,0,2012-03-27 05:54:00
2:54 AM,55.0,43.0,64,30.11,10.0,North,4.6,-,N/A,,Clear,360,2012-03-27 06:54:00
3:54 AM,50.0,43.0,77,30.12,10.0,NNW,9.2,-,N/A,,Clear,340,2012-03-27 07:54:00
4:54 AM,51.1,42.1,71,30.14,10.0,North,6.9,-,N/A,,Clear,10,2012-03-27 08:54:00
5:54 AM,48.0,42.1,80,30.16,10.0,SSE,5.8,-,N/A,,Clear,160,2012-03-27 09:54:00
6:54 AM,48.0,41.0,77,30.19,10.0,South,8.1,-,N/A,,Clear,180,2012-03-27 10:54:00
7:54 AM,46.0,33.1,61,30.25,10.0,South,9.2,-,N/A,,Clear,180,2012-03-27 11:54:00
8:54 AM,48.0,28.9,48,30.27,10.0,South,6.9,-,N/A,,Clear,180,2012-03-27 12:54:00
9:54 AM,51.1,30.9,46,30.27,10.0,South,9.2,-,N/A,,Clear,170,2012-03-27 13:54:00
10:54 AM,52.0,28.9,41,30.28,10.0,South,5.8,-,N/A,,Clear,190,2012-03-27 14:54:00
11:54 AM,55.0,30.0,38,30.27,10.0,SE,8.1,-,N/A,,Clear,130,2012-03-27 15:54:00
12:54 PM,59.0,30.9,35,30.25,10.0,Variable,6.9,-,N/A,,Clear,0,2012-03-27 16:54:00
1:54 PM,63.0,33.1,33,30.22,10.0,Variable,5.8,-,N/A,,Clear,0,2012-03-27 17:54:00
2:54 PM,66.0,34.0,30,30.19,10.0,ESE,8.1,-,N/A,,Clear,110,2012-03-27 18:54:00
3:54 PM,66.9,34.0,30,30.18,10.0,ESE,10.4,-,N/A,,Clear,120,2012-03-27 19:54:00
4:54 PM,68.0,35.1,30,30.18,10.0,ESE,9.2,16.1,N/A,,Clear,120,2012-03-27 20:54:00
5:54 PM,66.9,36.0,32,30.17,10.0,SE,9.2,-,N/A,,Clear,130,2012-03-27 21:54:00
6:54 PM,64.0,37.9,38,30.18,10.0,SSE,6.9,-,N/A,,Clear,160,2012-03-27 22:54:00
7:54 PM,62.1,37.0,39,30.20,10.0,SSE,5.8,-,N/A,,Clear,150,2012-03-27 23:54:00
8:54 PM,57.9,37.9,47,30.21,10.0,SSE,4.6,-,N/A,,Clear,150,2012-03-28 00:54:00
9:54 PM,55.0,39.0,55,30.23,10.0,SSE,4.6,-,N/A,,Clear,150,2012-03-28 01:54:00
10:54 PM,55.9,37.9,51,30.23,10.0,SE,6.9,-,N/A,,Clear,140,2012-03-28 02:54:00
11:54 PM,54.0,37.9,55,30.22,10.0,SSE,6.9,-,N/A,,Clear,150,2012-03-28 03:54:00